Location: Brighton Point
(40.6144°N, 111.7933°W)
Time: 13:54:33
(UTC+00:00)

Hubble Space Telescope - Pass Details

Date: 11 March 2021
Orbit: 535 x 539 km, 28.5° (Epoch: 10 April)

Event Time Altitude Azimuth Distance (km) Brightness Sun altitude
Rises 03:26:38 0° 245° (WSW) 2,665 5.1 -22.9°
Reaches altitude 10° 03:30:25 10° 211° (SSW) 1,773 3.6 -23.6°
Enters shadow 03:31:16 11° 199° (SSW) 1,704 3.3 -23.8°
